When you browse on this site, cookies collect data to enhance your experience and personalize the content and advertising you see.
Visit our Privacy Policy to learn more. By continuing to use the site, you agree to this use of cookies and data.
  • In Deutschland
  • Länderverzeichnis
  • Für 7 Tage
  • Wassertemperatur
  • Satellitenkarten
  • Wetterkarte
  • Widgets
  • user-avatar
    Anmelden

    Stündliche Wetter San Juan

    Heute, 25 April, Donnerstag

    Zeit Temperatur Niederschläge Wind Luftdruck Luftfeuchtigkeit
    00:00 +14°C° 0 mm 3 m/S 708 mmHg 81%
    01:00 +14°C° 0 mm 3 m/S 707 mmHg 86%
    02:00 +14°C° 0 mm 3 m/S 707 mmHg 87%
    03:00 +13°C° 0 mm 3 m/S 707 mmHg 87%
    04:00 +14°C° 0 mm 2 m/S 707 mmHg 88%
    05:00 +13°C° 0 mm 3 m/S 707 mmHg 86%
    06:00 +13°C° 0 mm 3 m/S 708 mmHg 85%
    07:00 +13°C° 0 mm 3 m/S 708 mmHg 83%
    08:00 +14°C° 0 mm 3 m/S 708 mmHg 77%
    09:00 +17°C° 0 mm 3 m/S 708 mmHg 70%
    10:00 +18°C° 0 mm 3 m/S 708 mmHg 63%
    11:00 +19°C° 0 mm 3 m/S 708 mmHg 59%
    12:00 +19°C° 0 mm 3 m/S 707 mmHg 54%
    13:00 +20°C° 0 mm 3 m/S 707 mmHg 50%
    14:00 +20°C° 0 mm 3 m/S 707 mmHg 51%
    15:00 +20°C° 0 mm 4 m/S 707 mmHg 52%
    16:00 +20°C° 0 mm 4 m/S 706 mmHg 53%
    17:00 +19°C° 0 mm 3 m/S 707 mmHg 56%
    18:00 +18°C° 0 mm 3 m/S 707 mmHg 60%
    19:00 +17°C° 0 mm 2 m/S 708 mmHg 63%
    20:00 +17°C° 0 mm 2 m/S 708 mmHg 66%
    21:00 +16°C° 0 mm 1 m/S 708 mmHg 68%
    22:00 +16°C° 0 mm 1 m/S 709 mmHg 71%
    23:00 +15°C° 0 mm 1 m/S 708 mmHg 73%

    Morgen, 26 April, Freitag

    Zeit Temperatur Niederschläge Wind Luftdruck Luftfeuchtigkeit
    00:00 +13°C° 0 mm 0 m/S 708 mmHg 76%
    01:00 +13°C° 0 mm 0 m/S 708 mmHg 78%
    02:00 +12°C° 0 mm 0 m/S 708 mmHg 79%
    03:00 +12°C° 0 mm 0 m/S 708 mmHg 80%
    04:00 +12°C° 0 mm 0 m/S 708 mmHg 82%
    05:00 +14°C° 0 mm 1 m/S 708 mmHg 78%
    06:00 +15°C° 0 mm 1 m/S 708 mmHg 74%
    07:00 +15°C° 0 mm 1 m/S 709 mmHg 70%
    08:00 +18°C° 0 mm 1 m/S 709 mmHg 63%
    09:00 +18°C° 0 mm 2 m/S 709 mmHg 56%
    10:00 +20°C° 0 mm 2 m/S 709 mmHg 49%
    11:00 +21°C° 0 mm 2 m/S 709 mmHg 45%
    12:00 +23°C° 0 mm 2 m/S 708 mmHg 41%
    13:00 +24°C° 0 mm 2 m/S 707 mmHg 37%
    14:00 +24°C° 0 mm 2 m/S 707 mmHg 37%
    15:00 +24°C° 0 mm 2 m/S 707 mmHg 37%
    16:00 +24°C° 0 mm 2 m/S 706 mmHg 37%
    17:00 +23°C° 0 mm 2 m/S 707 mmHg 44%
    18:00 +21°C° 0 mm 1 m/S 707 mmHg 50%
    19:00 +19°C° 0 mm 1 m/S 707 mmHg 57%
    20:00 +19°C° 0 mm 1 m/S 707 mmHg 60%
    21:00 +16°C° 0 mm 0 m/S 708 mmHg 63%
    22:00 +15°C° 0 mm 0 m/S 708 mmHg 66%
    23:00 +15°C° 0 mm 0 m/S 707 mmHg 67%

    übermorgen, 27 April, Samstag

    Zeit Temperatur Niederschläge Wind Luftdruck Luftfeuchtigkeit
    00:00 +15°C° 0 mm 0 m/S 707 mmHg 68%
    01:00 +14°C° 0 mm 0 m/S 707 mmHg 70%
    02:00 +15°C° 0 mm 1 m/S 707 mmHg 66%
    03:00 +16°C° 0 mm 1 m/S 706 mmHg 63%
    04:00 +16°C° 0 mm 2 m/S 706 mmHg 60%
    05:00 +17°C° 0 mm 2 m/S 706 mmHg 55%
    06:00 +17°C° 0 mm 2 m/S 706 mmHg 50%
    07:00 +18°C° 0 mm 2 m/S 707 mmHg 45%
    08:00 +20°C° 0 mm 2 m/S 707 mmHg 39%
    09:00 +24°C° 0 mm 3 m/S 707 mmHg 33%
    10:00 +26°C° 0 mm 3 m/S 707 mmHg 27%
    11:00 +27°C° 0 mm 2 m/S 706 mmHg 24%
    12:00 +28°C° 0 mm 2 m/S 706 mmHg 22%
    13:00 +29°C° 0 mm 2 m/S 705 mmHg 19%
    14:00 +29°C° 0 mm 1 m/S 705 mmHg 19%
    15:00 +29°C° 0 mm 1 m/S 704 mmHg 19%
    16:00 +28°C° 0 mm 1 m/S 704 mmHg 18%
    17:00 +26°C° 0 mm 1 m/S 704 mmHg 23%
    18:00 +24°C° 0 mm 1 m/S 705 mmHg 28%
    19:00 +21°C° 0 mm 1 m/S 705 mmHg 33%
    20:00 +19°C° 0 mm 0 m/S 705 mmHg 34%
    21:00 +18°C° 0 mm 0 m/S 705 mmHg 34%
    22:00 +17°C° 0 mm 0 m/S 706 mmHg 35%
    23:00 +19°C° 0 mm 1 m/S 705 mmHg 34%

    28 April, Sonntag

    Zeit Temperatur Niederschläge Wind Luftdruck Luftfeuchtigkeit
    00:00 +19°C° 0 mm 1 m/S 705 mmHg 32%
    01:00 +19°C° 0 mm 1 m/S 705 mmHg 30%
    02:00 +19°C° 0 mm 1 m/S 705 mmHg 31%
    03:00 +18°C° 0 mm 2 m/S 704 mmHg 33%
    04:00 +18°C° 0 mm 2 m/S 704 mmHg 35%
    05:00 +19°C° 0 mm 1 m/S 705 mmHg 35%
    06:00 +20°C° 0 mm 1 m/S 705 mmHg 36%
    07:00 +21°C° 0 mm 1 m/S 705 mmHg 36%
    08:00 +23°C° 0 mm 1 m/S 705 mmHg 33%
    09:00 +25°C° 0 mm 1 m/S 706 mmHg 29%
    10:00 +27°C° 0 mm 1 m/S 706 mmHg 25%
    11:00 +28°C° 0 mm 2 m/S 705 mmHg 23%
    12:00 +29°C° 0 mm 2 m/S 704 mmHg 21%
    13:00 +30°C° 0 mm 2 m/S 704 mmHg 19%
    14:00 +30°C° 0 mm 2 m/S 703 mmHg 19%
    15:00 +30°C° 0 mm 2 m/S 703 mmHg 20%
    16:00 +30°C° 0 mm 2 m/S 703 mmHg 20%
    17:00 +27°C° 0 mm 1 m/S 703 mmHg 25%
    18:00 +25°C° 0 mm 1 m/S 703 mmHg 31%
    19:00 +23°C° 0 mm 1 m/S 704 mmHg 37%
    20:00 +22°C° 0 mm 1 m/S 704 mmHg 40%
    21:00 +21°C° 0 mm 1 m/S 704 mmHg 44%
    22:00 +20°C° 0 mm 1 m/S 704 mmHg 47%
    23:00 +20°C° 0 mm 1 m/S 704 mmHg 49%

    29 April, Montag

    Zeit Temperatur Niederschläge Wind Luftdruck Luftfeuchtigkeit
    00:00 +20°C° 0 mm 1 m/S 703 mmHg 50%
    01:00 +19°C° 0 mm 1 m/S 703 mmHg 51%
    02:00 +19°C° 0 mm 1 m/S 703 mmHg 53%
    03:00 +19°C° 0 mm 1 m/S 703 mmHg 55%
    04:00 +18°C° 0 mm 2 m/S 703 mmHg 58%
    05:00 +18°C° 0 mm 2 m/S 704 mmHg 59%
    06:00 +19°C° 0 mm 3 m/S 704 mmHg 60%
    07:00 +19°C° 0 mm 3 m/S 705 mmHg 61%
    08:00 +21°C° 0 mm 4 m/S 705 mmHg 58%
    09:00 +22°C° 0 mm 5 m/S 705 mmHg 55%
    10:00 +24°C° 0 mm 6 m/S 706 mmHg 52%
    11:00 +24°C° 0 mm 7 m/S 705 mmHg 49%
    12:00 +26°C° 0 mm 7 m/S 704 mmHg 46%
    13:00 +26°C° 0 mm 7 m/S 704 mmHg 43%
    14:00 +26°C° 0 mm 7 m/S 704 mmHg 44%
    15:00 +24°C° 0 mm 7 m/S 704 mmHg 44%
    16:00 +24°C° 0 mm 7 m/S 704 mmHg 45%
    17:00 +23°C° 0 mm 7 m/S 705 mmHg 47%
    18:00 +22°C° 0 mm 7 m/S 706 mmHg 49%
    19:00 +21°C° 0 mm 7 m/S 707 mmHg 50%
    20:00 +20°C° 0 mm 7 m/S 707 mmHg 46%
    21:00 +19°C° 0 mm 6 m/S 707 mmHg 41%
    22:00 +17°C° 0 mm 6 m/S 708 mmHg 36%
    23:00 +16°C° 0 mm 6 m/S 708 mmHg 35%

    30 April, Dienstag

    Zeit Temperatur Niederschläge Wind Luftdruck Luftfeuchtigkeit
    00:00 +15°C° 0 mm 6 m/S 708 mmHg 34%
    01:00 +15°C° 0 mm 5 m/S 708 mmHg 33%
    02:00 +14°C° 0 mm 5 m/S 709 mmHg 33%
    03:00 +14°C° 0 mm 5 m/S 709 mmHg 33%
    04:00 +13°C° 0 mm 4 m/S 709 mmHg 33%
    05:00 +13°C° 0 mm 3 m/S 709 mmHg 32%
    06:00 +13°C° 0 mm 3 m/S 710 mmHg 32%
    07:00 +15°C° 0 mm 2 m/S 711 mmHg 31%
    08:00 +16°C° 0 mm 2 m/S 711 mmHg 29%
    09:00 +17°C° 0 mm 3 m/S 711 mmHg 28%
    10:00 +19°C° 0 mm 3 m/S 711 mmHg 26%
    11:00 +20°C° 0 mm 3 m/S 710 mmHg 26%
    12:00 +21°C° 0 mm 2 m/S 710 mmHg 26%
    13:00 +23°C° 0 mm 2 m/S 709 mmHg 26%
    14:00 +23°C° 0 mm 2 m/S 709 mmHg 26%
    15:00 +24°C° 0 mm 3 m/S 708 mmHg 27%
    16:00 +24°C° 0 mm 3 m/S 708 mmHg 28%
    17:00 +21°C° 0 mm 2 m/S 708 mmHg 32%
    18:00 +21°C° 0 mm 1 m/S 709 mmHg 36%
    19:00 +19°C° 0 mm 1 m/S 709 mmHg 40%
    20:00 +18°C° 0 mm 1 m/S 709 mmHg 41%
    21:00 +18°C° 0 mm 1 m/S 709 mmHg 42%
    22:00 +18°C° 0 mm 1 m/S 709 mmHg 42%
    23:00 +17°C° 0 mm 2 m/S 709 mmHg 44%
    Mehr zeigen